QPF
0.01 0.01 0.01 0.02 0.02 0.02 0.02 0.02 0.02 0.01 0.01 0.00 0.00 0.00 0.00 0.00 0.00 0.00 0.00 0.00 0.00 0.00 0.00 0.00 0.00 0.00 0.00 0.01 0.01 0.01 0.01 0.01 0.01 0.00 0.00 0.00 0.00 0.01 0.00 0.00 0.00 0.00 0.00
0.01 0.01 0.01 0.01 0.01 0.01 0.01 0.02 0.01 0.01 0.01 0.00 0.00 0.00 0.00 0.00 0.00 0.00 0.00 0.00 0.00 0.00 0.00 0.00 0.00 0.00 0.00 0.00 0.00 0.00 0.01 0.01 0.02 0.01 0.01 0.01 0.00 0.00 0.00 0.00 0.00 0.00 0.00
0.01 0.01 0.01 0.01 0.00 0.01 0.01 0.02 0.02 0.01 0.01 0.00 0.00 0.00 0.00 0.00 0.00 0.00 0.00 0.00 0.00 0.00 0.00 0.00 0.00 0.00 0.00 0.00 0.00 0.00 0.00 0.01 0.01 0.02 0.01 0.01 0.01 0.01 0.01 0.01 0.00 0.00 0.00
0.02 0.01 0.01 0.01 0.01 0.01 0.01 0.01 0.01 0.01 0.01 0.01 0.00 0.00 0.00 0.00 0.00 0.00 0.00 0.00 0.00 0.00 0.00 0.00 0.00 0.00 0.00 0.00 0.00 0.00 0.00 0.00 0.01 0.01 0.01 0.02 0.02 0.01 0.01 0.01 0.00 0.01 0.00
0.02 0.01 0.01 0.01 0.01 0.01 0.00 0.00 0.00 0.01 0.01 0.01 0.00 0.00 0.00 0.00 0.00 0.00 0.00 0.00 0.00 0.00 0.00 0.00 0.00 0.00 0.00 0.00 0.00 0.00 0.00 0.00 0.00 0.01 0.01 0.01 0.01 0.02 0.01 0.01 0.00 0.00 0.00
0.02 0.02 0.01 0.02 0.01 0.01 0.00 0.00 0.00 0.00 0.00 0.01 0.01 0.00 0.00 0.00 0.00 0.00 0.00 0.00 0.00 0.00 0.00 0.00 0.00 0.00 0.00 0.00 0.00 0.00 0.00 0.00 0.00 0.01 0.01 0.01 0.01 0.01 0.01 0.01 0.01 0.01 0.01
0.02 0.02 0.02 0.02 0.01 0.01 0.00 0.00 0.00 0.01 0.00 0.01 0.01 0.01 0.01 0.01 0.01 0.00 0.00 0.00 0.00 0.00 0.00 0.00 0.00 0.00 0.00 0.00 0.00 0.00 0.00 0.00 0.01 0.01 0.01 0.01 0.01 0.01 0.01 0.01 0.01 0.01 0.01
0.02 0.02 0.02 0.01 0.01 0.01 0.00 0.00 0.00 0.00 0.01 0.01 0.01 0.02 0.01 0.01 0.01 0.01 0.01 0.01 0.01 0.01 0.00 0.00 0.00 0.00 0.00 0.00 0.00 0.00 0.00 0.00 0.00 0.00 0.01 0.01 0.00 0.01 0.01 0.01 0.01 0.01 0.01
0.02 0.03 0.03 0.02 0.01 0.01 0.01 0.01 0.01 0.01 0.01 0.01 0.01 0.01 0.02 0.01 0.01 0.01 0.01 0.01 0.01 0.01 0.01 0.01 0.00 0.00 0.00 0.00 0.00 0.00 0.00 0.00 0.00 0.00 0.01 0.01 0.01 0.01 0.01 0.01 0.02 0.01 0.01
0.02 0.02 0.02 0.01 0.02 0.02 0.02 0.02 0.01 0.01 0.01 0.01 0.01 0.01 0.02 0.03 0.03 0.02 0.02 0.02 0.01 0.01 0.01 0.01 0.01 0.01 0.00 0.00 0.00 0.00 0.00 0.00 0.00 0.00 0.01 0.02 0.03 0.03 0.02 0.01 0.02 0.02 0.01
0.02 0.02 0.02 0.01 0.01 0.02 0.03 0.04 0.02 0.02 0.02 0.01 0.01 0.01 0.01 0.01 0.03 0.03 0.02 0.02 0.01 0.01 0.01 0.01 0.01 0.01 0.00 0.00 0.00 0.00 0.00 0.00 0.00 0.00 0.00 0.01 0.02 0.03 0.03 0.02 0.02 0.01 0.01
0.01 0.02 0.02 0.01 0.01 0.02 0.02 0.03 0.02 0.02 0.02 0.01 0.01 0.01 0.01 0.01 0.01 0.02 0.03 0.02 0.02 0.01 0.01 0.01 0.01 0.01 0.01 0.00 0.00 0.00 0.00 0.00 0.00 0.01 0.01 0.01 0.01 0.02 0.02 0.02 0.02 0.02 0.01
0.01 0.01 0.01 0.01 0.01 0.02 0.02 0.02 0.02 0.01 0.01 0.01 0.01 0.01 0.01 0.01 0.01 0.01 0.02 0.02 0.02 0.02 0.02 0.02 0.01 0.01 0.01 0.00 0.00 0.01 0.01 0.01 0.01 0.01 0.01 0.01 0.02 0.02 0.02 0.02 0.02 0.02 0.01
0.02 0.02 0.02 0.02 0.02 0.02 0.02 0.02 0.02 0.01 0.01 0.01 0.01 0.01 0.01 0.02 0.01 0.01 0.01 0.02 0.02 0.03 0.02 0.01 0.01 0.01 0.00 0.00 0.00 0.01 0.01 0.01 0.01 0.01 0.01 0.01 0.01 0.02 0.03 0.03 0.03 0.03 0.03
0.02 0.02 0.02 0.02 0.03 0.02 0.01 0.02 0.02 0.02 0.01 0.01 0.01 0.02 0.02 0.02 0.02 0.02 0.02 0.03 0.03 0.03 0.02 0.01 0.01 0.00 0.00 0.00 0.00 0.00 0.00 0.01 0.01 0.01 0.01 0.01 0.01 0.01 0.02 0.02 0.03 0.03 0.04
0.02 0.02 0.02 0.02 0.02 0.02 0.01 0.01 0.02 0.02 0.01 0.01 0.01 0.02 0.03 0.03 0.02 0.03 0.04 0.03 0.03 0.02 0.02 0.01 0.01 0.01 0.01 0.00 0.00 0.00 0.00 0.00 0.00 0.01 0.01 0.01 0.01 0.01 0.02 0.02 0.02 0.03 0.03
0.02 0.02 0.02 0.01 0.01 0.02 0.01 0.01 0.02 0.02 0.01 0.01 0.01 0.02 0.02 0.02 0.02 0.02 0.03 0.02 0.02 0.02 0.02 0.01 0.01 0.01 0.01 0.00 0.00 0.00 0.00 0.00 0.00 0.01 0.01 0.01 0.01 0.03 0.04 0.03 0.03 0.04 0.04
0.03 0.03 0.02 0.01 0.01 0.02 0.02 0.01 0.02 0.02 0.01 0.01 0.02 0.03 0.02 0.02 0.02 0.02 0.02 0.02 0.02 0.01 0.01 0.01 0.01 0.01 0.01 0.01 0.01 0.01 0.00 0.00 0.00 0.01 0.01 0.01 0.02 0.03 0.06 0.05 0.04 0.04 0.04
0.03 0.03 0.03 0.03 0.02 0.01 0.02 0.01 0.01 0.02 0.02 0.01 0.01 0.02 0.03 0.02 0.02 0.01 0.01 0.01 0.01 0.01 0.01 0.01 0.01 0.01 0.01 0.01 0.01 0.01 0.01 0.02 0.01 0.01 0.01 0.01 0.01 0.02 0.03 0.04 0.04 0.03 0.03
0.02 0.02 0.03 0.03 0.03 0.02 0.01 0.01 0.01 0.02 0.02 0.01 0.01 0.01 0.02 0.01 0.01 0.01 0.01 0.01 0.01 0.01 0.01 0.01 0.01 0.01 0.01 0.01 0.01 0.01 0.01 0.01 0.01 0.02 0.02 0.02 0.01 0.01 0.01 0.01 0.01 0.02 0.02
0.02 0.02 0.03 0.03 0.02 0.02 0.02 0.02 0.02 0.02 0.02 0.01 0.01 0.01 0.01 0.01 0.01 0.01 0.01 0.01 0.01 0.01 0.01 0.01 0.01 0.01 0.01 0.01 0.01 0.01 0.01 0.01 0.01 0.02 0.02 0.02 0.02 0.01 0.01 0.01 0.01 0.01 0.02
0.03 0.03 0.03 0.02 0.02 0.02 0.02 0.02 0.02 0.02 0.02 0.01 0.01 0.01 0.01 0.01 0.01 0.01 0.01 0.01 0.01 0.01 0.01 0.01 0.01 0.01 0.01 0.01 0.02 0.02 0.02 0.02 0.02 0.02 0.02 0.02 0.02 0.01 0.01 0.01 0.01 0.02 0.02
0.03 0.04 0.03 0.02 0.02 0.02 0.02 0.01 0.01 0.01 0.01 0.01 0.01 0.01 0.01 0.01 0.01 0.01 0.01 0.02 0.01 0.01 0.01 0.01 0.01 0.01 0.02 0.02 0.02 0.02 0.02 0.02 0.02 0.02 0.02 0.02 0.02 0.02 0.01 0.01 0.01 0.02 0.02
0.03 0.05 0.05 0.04 0.03 0.02 0.02 0.01 0.01 0.01 0.01 0.01 0.01 0.01 0.01 0.01 0.01 0.01 0.01 0.01 0.01 0.01 0.01 0.01 0.01 0.01 0.02 0.02 0.03 0.03 0.03 0.03 0.03 0.03 0.02 0.02 0.02 0.02 0.02 0.01 0.01 0.01 0.02
0.03 0.04 0.04 0.04 0.04 0.04 0.04 0.04 0.03 0.02 0.01 0.02 0.01 0.01 0.01 0.01 0.01 0.02 0.02 0.02 0.02 0.01 0.01 0.01 0.02 0.02 0.02 0.02 0.03 0.03 0.03 0.03 0.03 0.02 0.02 0.02 0.02 0.02 0.02 0.02 0.02 0.01 0.01
0.02 0.03 0.03 0.03 0.03 0.03 0.04 0.04 0.05 0.04 0.03 0.03 0.03 0.03 0.02 0.02 0.02 0.02 0.02 0.01 0.01 0.01 0.02 0.02 0.02 0.02 0.02 0.03 0.03 0.03 0.04 0.03 0.03 0.02 0.02 0.01 0.01 0.01 0.01 0.01 0.01 0.01 0.01
MSLP
1016.78 1017.00 1017.25 1017.49 1017.69 1017.81 1017.86 1017.82 1017.71 1017.56 1017.39 1017.21 1017.05 1016.91 1016.78 1016.67 1016.58 1016.50 1016.46 1016.45 1016.48 1016.55 1016.66 1016.79 1016.93 1017.05 1017.13 1017.16 1017.11 1016.98 1016.79 1016.53 1016.22 1015.87 1015.49 1015.08 1014.65 1014.21 1013.76 1013.31 1012.89 1012.51 1012.20
1016.94 1017.18 1017.45 1017.73 1017.96 1018.14 1018.23 1018.25 1018.19 1018.08 1017.94 1017.78 1017.61 1017.45 1017.29 1017.16 1017.04 1016.94 1016.87 1016.83 1016.83 1016.86 1016.92 1017.00 1017.07 1017.12 1017.14 1017.11 1017.04 1016.91 1016.73 1016.51 1016.24 1015.94 1015.60 1015.21 1014.78 1014.31 1013.80 1013.28 1012.76 1012.28 1011.85
1017.21 1017.49 1017.80 1018.11 1018.39 1018.61 1018.76 1018.84 1018.84 1018.77 1018.66 1018.52 1018.35 1018.18 1018.01 1017.84 1017.70 1017.58 1017.49 1017.44 1017.42 1017.43 1017.45 1017.47 1017.49 1017.48 1017.43 1017.35 1017.22 1017.07 1016.88 1016.67 1016.44 1016.17 1015.86 1015.49 1015.06 1014.56 1014.01 1013.42 1012.81 1012.23 1011.70
1017.56 1017.88 1018.23 1018.58 1018.91 1019.18 1019.39 1019.53 1019.59 1019.58 1019.52 1019.40 1019.24 1019.06 1018.87 1018.69 1018.53 1018.39 1018.29 1018.23 1018.20 1018.19 1018.19 1018.19 1018.16 1018.10 1017.99 1017.85 1017.68 1017.49 1017.28 1017.06 1016.83 1016.57 1016.27 1015.92 1015.49 1014.98 1014.40 1013.76 1013.09 1012.42 1011.80
1017.96 1018.33 1018.72 1019.10 1019.47 1019.80 1020.07 1020.27 1020.40 1020.46 1020.44 1020.36 1020.22 1020.05 1019.85 1019.65 1019.46 1019.31 1019.19 1019.12 1019.09 1019.08 1019.07 1019.05 1019.00 1018.90 1018.76 1018.57 1018.35 1018.12 1017.87 1017.63 1017.38 1017.12 1016.83 1016.48 1016.06 1015.55 1014.96 1014.30 1013.59 1012.86 1012.16
1018.38 1018.79 1019.20 1019.62 1020.03 1020.40 1020.73 1021.01 1021.21 1021.34 1021.38 1021.35 1021.24 1021.07 1020.87 1020.65 1020.44 1020.26 1020.13 1020.05 1020.01 1020.00 1019.99 1019.97 1019.91 1019.79 1019.62 1019.41 1019.15 1018.87 1018.59 1018.32 1018.05 1017.78 1017.49 1017.15 1016.74 1016.24 1015.66 1014.99 1014.27 1013.52 1012.77
1018.80 1019.24 1019.68 1020.12 1020.55 1020.96 1021.35 1021.69 1021.97 1022.18 1022.29 1022.31 1022.24 1022.09 1021.88 1021.65 1021.41 1021.20 1021.04 1020.94 1020.88 1020.87 1020.86 1020.84 1020.78 1020.66 1020.49 1020.25 1019.97 1019.66 1019.35 1019.05 1018.76 1018.48 1018.18 1017.85 1017.46 1016.99 1016.43 1015.79 1015.08 1014.32 1013.55
1019.23 1019.69 1020.14 1020.58 1021.03 1021.47 1021.90 1022.30 1022.66 1022.94 1023.13 1023.21 1023.18 1023.05 1022.85 1022.59 1022.33 1022.09 1021.89 1021.75 1021.67 1021.64 1021.63 1021.60 1021.55 1021.44 1021.26 1021.02 1020.73 1020.41 1020.08 1019.76 1019.45 1019.16 1018.86 1018.54 1018.17 1017.73 1017.21 1016.60 1015.92 1015.19 1014.42
1019.68 1020.15 1020.59 1021.03 1021.48 1021.93 1022.40 1022.85 1023.27 1023.62 1023.88 1024.02 1024.04 1023.94 1023.74 1023.47 1023.18 1022.89 1022.65 1022.48 1022.36 1022.30 1022.27 1022.25 1022.19 1022.09 1021.92 1021.68 1021.39 1021.07 1020.73 1020.40 1020.08 1019.78 1019.48 1019.16 1018.81 1018.40 1017.91 1017.35 1016.71 1016.01 1015.26
1020.16 1020.63 1021.06 1021.49 1021.92 1022.39 1022.87 1023.35 1023.82 1024.23 1024.54 1024.74 1024.80 1024.72 1024.53 1024.26 1023.95 1023.63 1023.35 1023.13 1022.98 1022.89 1022.84 1022.80 1022.74 1022.64 1022.48 1022.25 1021.97 1021.65 1021.31 1020.97 1020.64 1020.33 1020.02 1019.70 1019.35 1018.96 1018.49 1017.96 1017.35 1016.68 1015.96
1020.67 1021.13 1021.55 1021.96 1022.39 1022.84 1023.33 1023.83 1024.32 1024.77 1025.12 1025.36 1025.45 1025.40 1025.22 1024.96 1024.63 1024.30 1023.99 1023.74 1023.55 1023.43 1023.36 1023.31 1023.25 1023.15 1022.99 1022.78 1022.50 1022.18 1021.84 1021.49 1021.15 1020.81 1020.48 1020.14 1019.78 1019.37 1018.91 1018.38 1017.79 1017.14 1016.45
1021.18 1021.65 1022.06 1022.46 1022.88 1023.32 1023.80 1024.30 1024.80 1025.25 1025.62 1025.88 1025.99 1025.97 1025.81 1025.55 1025.23 1024.89 1024.58 1024.31 1024.11 1023.97 1023.89 1023.82 1023.75 1023.65 1023.50 1023.29 1023.02 1022.70 1022.35 1021.98 1021.61 1021.23 1020.86 1020.48 1020.07 1019.63 1019.14 1018.59 1017.99 1017.35 1016.67
1021.65 1022.13 1022.56 1022.97 1023.38 1023.81 1024.28 1024.77 1025.25 1025.69 1026.06 1026.31 1026.43 1026.42 1026.28 1026.04 1025.75 1025.43 1025.12 1024.87 1024.67 1024.53 1024.44 1024.37 1024.30 1024.20 1024.05 1023.83 1023.56 1023.23 1022.85 1022.45 1022.03 1021.60 1021.17 1020.71 1020.24 1019.73 1019.18 1018.59 1017.96 1017.30 1016.62
1022.03 1022.55 1023.01 1023.44 1023.87 1024.30 1024.76 1025.22 1025.67 1026.08 1026.42 1026.66 1026.77 1026.76 1026.64 1026.43 1026.17 1025.89 1025.62 1025.39 1025.22 1025.10 1025.02 1024.96 1024.88 1024.78 1024.62 1024.40 1024.11 1023.75 1023.34 1022.89 1022.41 1021.91 1021.39 1020.85 1020.28 1019.69 1019.07 1018.41 1017.74 1017.04 1016.35
1022.28 1022.86 1023.37 1023.85 1024.30 1024.75 1025.19 1025.63 1026.05 1026.42 1026.71 1026.92 1027.02 1027.01 1026.90 1026.73 1026.51 1026.28 1026.06 1025.88 1025.75 1025.66 1025.60 1025.55 1025.48 1025.37 1025.20 1024.95 1024.63 1024.24 1023.78 1023.27 1022.72 1022.14 1021.53 1020.89 1020.23 1019.54 1018.83 1018.10 1017.37 1016.64 1015.92
1022.36 1023.01 1023.59 1024.13 1024.63 1025.11 1025.56 1025.98 1026.36 1026.69 1026.94 1027.11 1027.19 1027.17 1027.08 1026.94 1026.77 1026.60 1026.45 1026.32 1026.24 1026.19 1026.15 1026.11 1026.03 1025.91 1025.72 1025.44 1025.08 1024.64 1024.13 1023.56 1022.93 1022.27 1021.56 1020.83 1020.08 1019.30 1018.52 1017.73 1016.94 1016.17 1015.43
1022.27 1023.00 1023.66 1024.28 1024.84 1025.35 1025.82 1026.24 1026.60 1026.89 1027.11 1027.24 1027.30 1027.28 1027.21 1027.11 1026.99 1026.87 1026.78 1026.71 1026.67 1026.65 1026.63 1026.59 1026.51 1026.36 1026.14 1025.83 1025.42 1024.93 1024.36 1023.72 1023.03 1022.28 1021.51 1020.70 1019.87 1019.03 1018.18 1017.34 1016.51 1015.72 1014.96
1022.04 1022.84 1023.58 1024.27 1024.90 1025.46 1025.96 1026.39 1026.74 1027.01 1027.21 1027.33 1027.37 1027.37 1027.32 1027.25 1027.18 1027.11 1027.07 1027.05 1027.05 1027.05 1027.03 1026.98 1026.88 1026.70 1026.43 1026.07 1025.61 1025.07 1024.44 1023.75 1022.99 1022.20 1021.37 1020.51 1019.63 1018.75 1017.87 1017.00 1016.15 1015.34 1014.58
1021.71 1022.56 1023.37 1024.12 1024.82 1025.43 1025.97 1026.42 1026.78 1027.06 1027.25 1027.37 1027.43 1027.44 1027.43 1027.40 1027.37 1027.35 1027.35 1027.36 1027.37 1027.37 1027.35 1027.27 1027.12 1026.89 1026.58 1026.16 1025.65 1025.06 1024.39 1023.65 1022.86 1022.02 1021.16 1020.28 1019.38 1018.48 1017.60 1016.72 1015.88 1015.07 1014.31
1021.32 1022.20 1023.06 1023.86 1024.61 1025.27 1025.85 1026.33 1026.72 1027.02 1027.24 1027.39 1027.48 1027.53 1027.55 1027.57 1027.58 1027.60 1027.62 1027.65 1027.66 1027.64 1027.58 1027.46 1027.26 1026.98 1026.60 1026.13 1025.57 1024.93 1024.22 1023.46 1022.64 1021.80 1020.93 1020.04 1019.15 1018.26 1017.38 1016.53 1015.70 1014.90 1014.15
1020.91 1021.81 1022.69 1023.53 1024.30 1025.00 1025.61 1026.14 1026.57 1026.91 1027.17 1027.37 1027.51 1027.61 1027.69 1027.75 1027.81 1027.86 1027.89 1027.92 1027.91 1027.86 1027.75 1027.57 1027.31 1026.97 1026.53 1026.01 1025.41 1024.73 1024.00 1023.22 1022.40 1021.55 1020.69 1019.82 1018.95 1018.08 1017.22 1016.39 1015.58 1014.80 1014.06
1020.53 1021.42 1022.30 1023.14 1023.93 1024.65 1025.30 1025.85 1026.33 1026.73 1027.05 1027.31 1027.51 1027.68 1027.82 1027.93 1028.03 1028.10 1028.15 1028.16 1028.12 1028.02 1027.86 1027.62 1027.30 1026.89 1026.40 1025.84 1025.20 1024.51 1023.76 1022.98 1022.17 1021.34 1020.49 1019.64 1018.79 1017.94 1017.11 1016.30 1015.51 1014.74 1014.00
1020.18 1021.05 1021.91 1022.74 1023.53 1024.26 1024.92 1025.51 1026.03 1026.48 1026.87 1027.19 1027.48 1027.71 1027.91 1028.08 1028.22 1028.31 1028.35 1028.35 1028.28 1028.14 1027.92 1027.62 1027.24 1026.78 1026.25 1025.66 1025.00 1024.30 1023.56 1022.78 1021.99 1021.17 1020.35 1019.52 1018.68 1017.86 1017.04 1016.23 1015.45 1014.69 1013.94
1019.86 1020.71 1021.54 1022.35 1023.13 1023.85 1024.53 1025.14 1025.69 1026.19 1026.64 1027.03 1027.38 1027.69 1027.95 1028.17 1028.33 1028.44 1028.49 1028.47 1028.36 1028.18 1027.92 1027.58 1027.16 1026.66 1026.11 1025.50 1024.84 1024.14 1023.42 1022.66 1021.88 1021.09 1020.28 1019.47 1018.64 1017.82 1017.00 1016.19 1015.40 1014.62 1013.87
1019.55 1020.38 1021.20 1021.99 1022.75 1023.46 1024.13 1024.76 1025.34 1025.88 1026.38 1026.83 1027.24 1027.60 1027.92 1028.17 1028.37 1028.49 1028.54 1028.50 1028.37 1028.16 1027.87 1027.50 1027.05 1026.55 1025.99 1025.38 1024.73 1024.06 1023.35 1022.62 1021.87 1021.10 1020.30 1019.49 1018.67 1017.84 1017.01 1016.18 1015.37 1014.58 1013.80
1019.23 1020.06 1020.87 1021.65 1022.39 1023.10 1023.77 1024.40 1025.00 1025.57 1026.10 1026.59 1027.05 1027.46 1027.81 1028.10 1028.31 1028.45 1028.50 1028.45 1028.32 1028.09 1027.78 1027.40 1026.95 1026.45 1025.90 1025.31 1024.69 1024.04 1023.37 1022.67 1021.95 1021.19 1020.41 1019.60 1018.77 1017.93 1017.08 1016.24 1015.40 1014.58 1013.78
Thickness
5709 5708 5706 5704 5702 5701 5699 5698 5697 5696 5695 5694 5693 5691 5690 5688 5687 5686 5685 5684 5682 5680 5679 5678 5676 5675 5673 5671 5669 5667 5663 5660 5653 5652 5652 5653 5652 5651 5650 5649 5648 5647 5646
5709 5707 5704 5702 5700 5698 5696 5695 5695 5693 5692 5691 5689 5688 5686 5685 5684 5683 5681 5680 5678 5676 5675 5674 5672 5671 5669 5667 5665 5662 5660 5657 5653 5649 5648 5648 5647 5647 5646 5645 5644 5643 5642
5707 5704 5701 5699 5697 5696 5694 5693 5692 5690 5689 5687 5686 5684 5683 5682 5681 5680 5678 5676 5675 5673 5671 5669 5668 5666 5664 5662 5661 5658 5656 5655 5651 5647 5644 5643 5642 5642 5640 5640 5639 5638 5638
5704 5701 5699 5697 5696 5694 5692 5691 5689 5688 5686 5684 5683 5682 5680 5679 5678 5677 5675 5673 5671 5669 5668 5666 5665 5663 5661 5659 5657 5654 5652 5649 5646 5642 5639 5638 5636 5636 5635 5632 5631 5631 5631
5702 5699 5698 5696 5694 5692 5690 5688 5686 5685 5684 5682 5680 5678 5677 5676 5675 5673 5672 5669 5667 5665 5663 5662 5662 5661 5659 5657 5654 5650 5648 5644 5641 5638 5635 5633 5631 5630 5628 5627 5625 5625 5625
5700 5698 5696 5694 5692 5689 5687 5685 5683 5681 5680 5678 5677 5675 5674 5674 5673 5672 5669 5666 5664 5661 5659 5658 5658 5657 5656 5654 5652 5649 5646 5642 5637 5634 5631 5628 5627 5626 5624 5623 5620 5618 5617
5698 5696 5694 5692 5689 5687 5686 5682 5680 5678 5676 5675 5674 5672 5671 5671 5671 5669 5667 5664 5660 5658 5656 5654 5654 5653 5651 5649 5647 5645 5642 5640 5638 5633 5629 5627 5625 5624 5621 5619 5616 5613 5612
5695 5694 5692 5690 5687 5685 5682 5680 5678 5676 5674 5672 5670 5669 5668 5667 5667 5666 5663 5660 5657 5655 5653 5651 5649 5648 5647 5645 5642 5639 5637 5635 5633 5631 5629 5627 5625 5623 5619 5617 5614 5611 5609
5692 5691 5691 5688 5685 5682 5680 5677 5676 5673 5671 5669 5668 5666 5664 5664 5664 5662 5660 5655 5652 5650 5649 5648 5646 5644 5643 5641 5637 5634 5631 5629 5629 5627 5625 5623 5621 5618 5615 5611 5607 5604 5601
5690 5690 5689 5687 5684 5681 5679 5676 5674 5671 5669 5667 5664 5663 5662 5660 5660 5659 5656 5652 5648 5646 5644 5643 5642 5641 5639 5636 5632 5629 5625 5624 5623 5621 5619 5617 5615 5612 5610 5606 5602 5597 5594
5688 5687 5686 5685 5683 5681 5678 5675 5672 5669 5666 5663 5661 5659 5658 5657 5657 5655 5653 5649 5645 5642 5640 5638 5637 5636 5634 5632 5629 5625 5623 5621 5617 5614 5611 5609 5607 5605 5603 5600 5597 5593 5588
5683 5682 5682 5681 5681 5678 5674 5671 5668 5665 5661 5659 5656 5654 5653 5653 5652 5651 5649 5646 5643 5639 5636 5635 5634 5632 5630 5627 5624 5622 5619 5615 5611 5607 5604 5601 5599 5598 5596 5594 5591 5587 5584
5677 5677 5677 5677 5676 5674 5671 5667 5664 5661 5658 5655 5652 5650 5648 5648 5647 5647 5645 5642 5639 5635 5633 5632 5629 5627 5624 5622 5620 5617 5613 5608 5604 5601 5598 5596 5594 5592 5589 5586 5584 5580 5577
5673 5672 5672 5671 5670 5668 5666 5664 5661 5658 5655 5652 5650 5647 5645 5643 5642 5641 5638 5636 5633 5630 5627 5625 5623 5620 5617 5615 5612 5610 5607 5603 5599 5596 5593 5590 5588 5584 5581 5578 5575 5572 5568
5668 5667 5666 5666 5665 5663 5661 5660 5659 5658 5656 5652 5649 5646 5642 5639 5640 5639 5635 5631 5628 5625 5621 5617 5614 5611 5609 5606 5604 5601 5599 5596 5593 5590 5586 5583 5580 5577 5574 5570 5566 5562 5558
5662 5661 5660 5660 5658 5657 5655 5653 5653 5653 5652 5650 5648 5644 5642 5640 5637 5633 5630 5627 5623 5619 5614 5610 5607 5605 5602 5600 5597 5594 5591 5589 5586 5583 5579 5576 5572 5569 5565 5562 5557 5553 5550
5658 5656 5655 5654 5653 5651 5649 5648 5645 5645 5644 5643 5641 5639 5637 5635 5631 5627 5624 5620 5616 5612 5607 5604 5601 5599 5597 5594 5591 5588 5585 5582 5579 5575 5572 5568 5565 5561 5557 5554 5550 5545 5542
5652 5651 5649 5648 5647 5645 5644 5643 5641 5639 5636 5634 5634 5633 5631 5628 5625 5621 5616 5611 5605 5603 5600 5598 5596 5593 5590 5587 5584 5581 5578 5574 5571 5568 5564 5560 5556 5553 5549 5545 5541 5537 5534
5645 5644 5643 5642 5641 5639 5638 5636 5634 5632 5630 5628 5626 5624 5623 5620 5616 5613 5608 5604 5600 5596 5594 5591 5589 5587 5584 5581 5578 5574 5570 5567 5563 5560 5556 5552 5548 5544 5541 5537 5533 5529 5525
5638 5639 5638 5636 5634 5632 5630 5628 5627 5625 5622 5620 5619 5617 5613 5609 5605 5602 5599 5596 5593 5591 5588 5585 5582 5580 5577 5574 5570 5566 5563 5559 5555 5552 5548 5544 5540 5536 5533 5529 5525 5521 5517
5630 5630 5631 5629 5627 5625 5623 5622 5620 5618 5615 5613 5612 5610 5607 5603 5599 5596 5592 5589 5587 5584 5581 5578 5575 5572 5569 5566 5563 5559 5555 5552 5548 5545 5541 5536 5532 5528 5524 5520 5516 5512 5508
5622 5621 5621 5620 5619 5617 5616 5615 5613 5610 5608 5606 5603 5601 5598 5594 5591 5588 5586 5583 5580 5578 5575 5571 5567 5564 5561 5558 5555 5551 5547 5544 5540 5536 5533 5529 5524 5520 5516 5511 5507 5503 5499
5613 5612 5612 5611 5610 5609 5607 5606 5604 5602 5599 5597 5595 5592 5589 5586 5583 5580 5577 5575 5572 5569 5566 5562 5559 5555 5552 5549 5546 5543 5540 5536 5533 5529 5525 5520 5516 5512 5507 5503 5499 5494 5489
5604 5603 5602 5601 5600 5598 5597 5596 5594 5592 5590 5588 5586 5583 5580 5577 5574 5571 5568 5565 5562 5559 5556 5553 5550 5547 5543 5540 5537 5534 5531 5528 5525 5521 5517 5513 5508 5504 5499 5494 5490 5485 5481
5593 5593 5591 5590 5589 5588 5587 5585 5583 5582 5580 5578 5576 5573 5570 5567 5564 5561 5558 5555 5552 5549 5546 5543 5540 5537 5534 5531 5528 5525 5522 5519 5516 5512 5508 5504 5499 5494 5490 5485 5481 5476 5472
5582 5581 5580 5579 5578 5577 5576 5574 5573 5571 5569 5567 5565 5563 5560 5557 5554 5550 5547 5544 5541 5538 5535 5532 5530 5527 5524 5521 5518 5516 5513 5510 5506 5503 5499 5494 5489 5484 5480 5476 5472 5467 5463